Regional Weather Roundup
Issued by NWS

Home | Current Version | Previous Version | Graphics & Text | Print | Product List | Glossary On
Versions: 1 2 3 4 5 6 7 8 9 10 11 12 13 14 15 16 17 18 19 20 21 22 23 24 25 26 27 28 29 30 31 32 33 34 35 36 37 38 39 40 41 42 43 44 45 46 47 48 49 50
169
ASUS45 KABQ 241601
RWRNM
NEW MEXICO REGIONAL WEATHER ROUNDUP
NATIONAL WEATHER SERVICE ALBUQUERQUE NM
1000 AM MDT TUE MAY 24 2016

NOTE: "FAIR" MEANS FEW OR NO CLOUDS BELOW 12,000 FEET AGL WITH NO
       SIGNIFICANT WEATHER OR OBSTRUCTIONS TO VISION.

      THIS PRODUCT IS RELEASED AS TWO VERSIONS.  ONE VERSION NEAR
      THE TOP OF THE HOUR CONTAINING PRELIMINARY DATA FROM ALBUQUERQUE
      AND OTHER STATIONS.  A FINAL VERSION WITH ADDITIONAL DATA IS
      ISSUED ABOUT 10 MINUTES AFTER THE HOUR.

NMZ501-503-504-510>518-241700-
NORTHWEST PLATEAU/NORTHCENTRAL MOUNTAINS

CITY           SKY/WX    TMP DP  RH WIND       PRES   REMARKS
FARMINGTON     FAIR      65  21  18 E10       29.99F
SANTA FE       FAIR      69  21  16 W9        30.05S
TAOS           FAIR      61  23  23 S5        30.09F

$$
NMZ402-403-502-505>509-241700-
WESTCENTRAL MOUNTAINS/SOUTHWEST MOUNTAINS

CITY           SKY/WX    TMP DP  RH WIND       PRES   REMARKS
GALLUP         FAIR      63  24  22 SW21G30   30.05S
GRANTS         FAIR      64  24  21 S7        30.08F
SILVER CITY      N/A     68  27  21 S5        30.09S

$$
NMZ407-409-411-412-241700-
SOUTHERN DESERTS

CITY           SKY/WX    TMP DP  RH WIND       PRES   REMARKS
LORDSBURG      FAIR      72  27  18 CALM      30.02R
DEMING         FAIR      74  29  19 SW10      30.03S
HOLLOMAN AFB   FAIR      78  26  14 W8        30.00S
ALAMOGORDO     FAIR      75  23  14 CALM      30.03R
T OR C         FAIR      73  24  16 S10       30.01S

$$
NMZ519>523-241700-
CENTRAL VALLEYS/CENTRAL HIGHLANDS

CITY           SKY/WX    TMP DP  RH WIND       PRES   REMARKS
ALBUQUERQUE    FAIR      71  22  15 NW3       30.03S
DOUBLE EAGLE   SUNNY     68  25  19 VRB6      30.05F
CLINES CORNERS FAIR      66  23  19 W16G25    30.08S
BELEN          FAIR      70  22  16 CALM      30.03S
SOCORRO        NOT AVBL

$$
NMZ524>526-539-540-241700-
SOUTHCENTRAL MOUNTAINS

CITY           SKY/WX    TMP DP  RH WIND       PRES   REMARKS
RUIDOSO        NOT AVBL

$$
NMZ527>531-241700-
NORTHEAST HIGHLANDS/NORTHEAST PLAINS

CITY           SKY/WX    TMP DP  RH WIND       PRES   REMARKS
LAS VEGAS      FAIR      69  12  11 SW16G29   30.05S
RATON          FAIR      69  25  19 S10       30.00S
CLAYTON        FAIR      75  42  30 NE13      29.94R

$$
NMZ532>537-241700-
EASTCENTRAL PLAINS

CITY           SKY/WX    TMP DP  RH WIND       PRES   REMARKS
TUCUMCARI      FAIR      79  29  16 CALM      29.91S
CANNON AFB     FAIR      77  47  35 W8        29.95R
CLOVIS AIRPORT FAIR      75  52  43 SW10      29.95S

$$
NMZ028-029-538-241700-
SOUTHEAST PLAINS

CITY           SKY/WX    TMP DP  RH WIND       PRES   REMARKS
ROSWELL        FAIR      82  28  14 VRB7      29.92F
ARTESIA        FAIR      84  23  10 SW14G20   29.94S
CARLSBAD       FAIR      86  23  10 W23G31    29.92S
HOBBS          SUNNY     82  39  21 W17       29.94F


$$




USA.gov is the U.S. government's official web portal to all federal, state and local government web resources and services.